This demonstration page uses our WeatherBlox Daily Observations layout. Learn more.

Left ArrowRight Arrow

39.29038, -76.61219

Hourly Observations for July 24, 2020

Temp ( °F °C ) Dew Point ( °F °C ) Humidity (%) Winds ( mph kmh ) Pressure ( in mb ) Visibility ( mi km ) Precip ( " mm )
12:54 am 00:54 Cloudy with Light Rain 74 23.3 71 21.7 91 91 Calm 30.04 1017 10 16 0.00 0.00
1:54 am 01:54 Cloudy with Light Rain 74 23.3 71 21.7 91 91 W 5 7 30.03 1017 10 16 0.00 0.00
2:54 am 02:54 Mostly Cloudy 75 23.9 71 21.7 88 88 WSW 5 7 30.03 1017 10 16 0.00 0.00
3:54 am 03:54 Cloudy 75 23.9 72 22.2 90 90 SW 3 6 30.04 1017 10 16 0.00 0.00
4:54 am 04:54 Cloudy with Rain 75 23.9 72 22.2 90 90 SW 5 7 30.04 1017 7 11 0.01 0.25
5:54 am 05:54 Cloudy with Light Rain 75 23.9 72 22.2 90 90 WSW 3 6 30.06 1018 5 8 0.04 1.02
6:54 am 06:54 Cloudy with Light Rain 75 23.9 73 22.8 94 94 W 3 6 30.07 1018 6 10 0.06 1.52
7:54 am 07:54 Cloudy with Light Rain 75 23.9 72 22.2 90 90 W 5 7 30.07 1018 8 13 0.01 0.25
8:54 am 08:54 Mostly Sunny 77 25 72 22.2 85 85 WNW 6 9 30.07 1018 10 16 0.02 0.51
9:54 am 09:54 Mostly Cloudy 78 25.6 73 22.8 85 85 SW 3 6 30.08 1019 10 16 0.00 0.00
10:54 am 10:54 Mostly Cloudy 80 26.7 73 22.8 79 79 WSW 5 7 30.08 1019 10 16 0.00 0.00
11:54 am 11:54 Mostly Cloudy 83 28.3 72 22.2 70 70 W 5 7 30.08 1019 10 16 0.00 0.00
12:33 pm 12:33 Mostly Cloudy 84 28.9 71 21.7 65 65 SSW 6 9 30.07 1018 10 16 0.00 0.00
12:54 pm 12:54 Cloudy 82 27.8 71 21.7 69 69 WSW 7 11 30.08 1019 10 16 0.00 0.00
1:54 pm 13:54 Cloudy 85 29.4 71 21.7 63 63 SW 6 9 30.07 1018 10 16 0.00 0.00
2:39 pm 14:39 Mostly Cloudy 86 30 72 22.2 63 63 VRB 3 6 30.05 1018 10 16 0.00 0.00
2:54 pm 14:54 Mostly Cloudy 85 29.4 71 21.7 63 63 SW 3 6 30.05 1018 10 16 0.00 0.00
3:54 pm 15:54 Mostly Cloudy 86 30 71 21.7 61 61 S 3 6 30.03 1017 10 16 0.00 0.00
4:54 pm 16:54 Mostly Cloudy 86 30 71 21.7 61 61 SSW 3 6 30.02 1017 10 16 0.00 0.00
5:54 pm 17:54 Mostly Cloudy 85 29.4 71 21.7 63 63 S 5 7 30.03 1017 10 16 0.00 0.00
6:54 pm 18:54 Cloudy 77 25 69 20.6 77 77 NE 13 20 30.06 1018 10 16 0.00 0.00
7:06 pm 19:06 Cloudy with Thunderstorms 77 25 69 20.6 77 77 ENE 10 17 30.06 1018 10 16 0.00 0.00
7:52 pm 19:52 Cloudy with Light Rain 73 23 70 21 89 89 NNW 6 9 30.05 1018 10 16 0.00 0.00
7:54 pm 19:54 Cloudy with Thunderstorms 75 23.9 69 20.6 82 82 NW 3 6 30.05 1018 10 16 0.00 0.00
8:30 pm 20:30 Mostly Cloudy with Light Rain 74 23.3 69 20.6 85 85 NNW 7 11 30.04 1017 10 16 0.00 0.00
8:54 pm 20:54 Mostly Cloudy 77 25 68 20 74 74 ENE 5 7 30.04 1017 10 16 0.00 0.00
9:54 pm 21:54 Clear 75 23.9 70 21.1 84 84 Calm 30.06 1018 10 16 0.00 0.00
10:54 pm 22:54 Partly Cloudy 73 22.8 70 21.1 90 90 NW 3 6 30.08 1019 10 16 0.00 0.00
11:54 pm 23:54 Mostly Cloudy 73 22.8 70 21.1 90 90 Calm 30.08 1019 10 16 0.00 0.00

Powered by AerisWeather